SCP
0 0 0 0 0 0 0 0 0 0 0 0 0 0 0 0 0 0 0 0 1 1 1 1 1 1 1 1 0 0 0 0 0 0 0 0 0 0 0 0 0 0 0
0 0 0 0 0 0 0 0 0 0 0 0 0 0 0 0 0 0 0 0 0 1 1 1 1 1 1 1 0 0 0 0 0 0 0 0 0 0 0 0 0 0 0
0 0 0 0 0 0 0 0 0 0 0 0 0 0 0 0 0 0 0 0 0 0 0 1 1 1 1 1 1 1 0 0 0 1 1 0 0 0 0 0 0 0 0
0 0 0 0 0 0 0 0 0 0 0 0 0 0 0 0 0 0 0 0 0 0 0 1 1 1 1 1 1 1 1 1 1 1 1 1 1 0 0 0 0 0 0
1 1 1 0 0 0 0 0 0 0 0 0 0 0 0 0 0 0 0 0 0 0 0 0 1 1 1 1 1 1 1 1 1 1 1 1 1 1 0 0 0 0 0
1 1 1 1 0 0 0 0 0 0 0 0 0 0 0 0 0 0 0 0 0 0 0 0 1 1 1 1 1 1 1 1 1 1 1 1 1 1 1 1 1 1 0
1 1 1 1 1 0 0 0 0 0 0 0 0 0 0 0 0 0 0 0 0 0 0 0 0 1 1 1 1 1 1 1 1 1 1 1 1 1 1 1 1 1 1
1 1 1 1 1 1 1 1 1 1 1 0 0 0 0 0 0 0 0 0 0 0 0 0 0 0 0 1 1 1 1 1 1 1 1 1 1 1 1 1 1 1 1
1 1 1 1 1 1 1 1 1 1 1 0 0 0 0 0 0 0 0 0 0 0 0 0 0 0 0 0 0 1 1 1 1 1 1 1 1 1 1 1 1 1 1
1 1 1 1 1 1 1 1 1 0 0 0 0 0 0 0 0 0 0 0 0 0 0 0 0 0 0 0 0 0 0 1 1 1 1 1 2 2 2 2 1 1 1
1 1 1 1 1 1 0 0 0 0 0 0 0 0 0 0 0 0 0 0 0 0 0 0 0 0 0 0 0 0 0 0 1 1 1 1 1 2 2 2 2 1 1
1 1 1 1 1 1 0 0 0 0 0 0 0 0 0 0 0 0 0 0 0 0 0 0 0 0 0 0 0 0 0 0 0 0 1 1 1 1 2 2 2 1 1
1 1 1 1 1 1 0 0 0 0 0 0 0 0 0 0 0 0 0 0 0 0 0 0 0 0 0 0 0 0 0 0 0 0 0 0 1 1 1 1 1 1 1
1 1 1 1 1 1 1 1 0 0 0 0 0 0 0 0 0 0 0 0 0 0 0 0 0 0 0 0 0 0 0 0 0 0 0 0 0 0 1 1 1 1 1
1 1 1 1 1 1 1 1 1 1 0 0 0 0 0 0 0 0 0 0 0 0 0 0 0 0 0 0 0 0 0 0 0 0 0 0 0 0 0 0 1 1 1
1 1 1 1 1 1 1 1 1 1 1 1 0 0 0 0 0 0 0 0 0 0 0 0 0 0 0 0 0 0 0 0 0 0 0 0 0 0 0 0 0 0 0
1 1 1 1 1 1 1 1 1 1 1 1 0 1 1 1 1 1 0 0 0 0 0 0 0 0 0 0 0 0 0 0 0 0 0 0 0 0 0 0 0 0 0
1 1 1 1 1 2 2 1 1 1 1 1 1 1 1 1 1 1 1 1 0 0 0 0 0 0 0 0 0 0 0 0 0 0 0 0 0 0 0 0 0 0 0
1 1 1 1 1 1 1 1 1 1 1 1 1 1 1 1 1 1 1 1 1 0 0 0 0 0 0 0 0 0 0 0 0 0 0 0 0 0 0 0 0 0 0
1 1 1 1 1 1 1 1 1 1 1 1 1 2 2 2 2 1 1 1 1 1 0 0 0 0 0 0 0 0 0 0 0 0 0 0 0 0 0 0 0 0 0
2 2 2 1 1 1 1 1 1 1 2 2 2 2 2 2 2 1 1 1 1 1 1 0 0 0 0 0 0 0 0 0 0 0 0 0 0 0 0 0 0 0 0
4 3 3 2 2 2 1 1 1 1 2 2 3 3 3 2 2 1 1 1 1 1 1 1 1 0 0 0 0 0 0 0 0 0 0 0 0 0 0 0 0 0 0
5 4 4 3 3 3 2 1 1 1 2 2 2 2 2 2 1 1 1 1 1 1 1 1 1 1 1 1 0 0 0 0 0 0 0 0 0 0 0 0 0 0 0
5 4 4 3 3 3 2 1 1 1 1 2 2 2 1 1 1 1 1 1 1 1 1 1 1 1 1 1 1 0 0 0 0 0 0 0 0 0 0 0 0 0 0
4 4 3 3 2 2 2 1 1 1 1 1 1 1 1 1 1 1 1 1 1 1 1 1 1 1 1 0 0 0 0 0 0 0 0 0 0 0 0 0 0 0 0
3 3 2 2 1 1 1 1 1 1 1 1 1 1 1 1 1 1 1 1 1 2 1 1 1 0 0 0 0 0 0 0 0 0 0 0 0 0 0 0 0 0 0
Wind_Speed
1 1 0 1 1 1 1 1 1 1 1 1 1 2 2 3 3 3 2 7 8 8 8 9 9 9 9 9 8 8 8 8 7 7 7 7 7 7 7 7 7 7 6
2 2 1 0 0 0 0 0 0 0 0 0 1 1 2 3 3 4 3 5 8 8 9 10 10 10 10 10 9 9 9 9 8 8 8 8 8 8 8 8 8 8 7
3 2 2 1 1 1 1 0 0 0 0 0 1 1 2 3 3 4 4 3 4 8 10 10 11 11 11 11 11 11 11 10 10 9 9 9 9 9 9 9 9 9 9
3 3 2 2 2 1 1 1 1 0 0 0 1 2 2 2 4 4 4 4 4 4 7 11 11 11 12 12 12 12 12 12 11 11 11 11 11 10 10 10 10 10 9
4 3 3 2 2 1 1 1 1 1 1 1 2 2 2 2 3 4 4 5 5 5 4 6 10 11 12 12 12 12 13 13 12 12 13 12 12 12 11 11 11 11 11
4 3 3 3 2 2 2 1 1 1 1 1 2 2 2 3 3 3 4 4 4 6 5 5 5 7 11 11 11 12 12 13 13 13 14 14 14 13 13 12 12 12 12
4 4 3 3 3 3 3 3 2 1 1 0 0 2 2 2 3 3 3 3 4 5 5 5 5 4 4 8 9 10 11 11 11 12 12 13 13 13 13 13 13 13 13
4 4 4 3 3 2 2 3 2 1 1 1 2 0 2 3 2 2 2 3 4 3 4 5 5 5 4 3 4 7 8 9 10 10 10 10 11 11 12 12 12 11 11
4 4 4 3 3 3 3 3 3 3 2 1 2 2 2 3 2 2 2 2 2 2 3 3 4 5 5 4 3 5 8 9 10 10 9 9 9 10 11 12 13 12 12
4 4 4 4 4 3 4 4 3 3 3 2 2 2 2 2 2 2 2 1 2 2 3 2 3 3 4 3 4 5 7 7 8 9 9 8 8 9 10 11 11 11 11
3 4 4 4 4 3 4 3 3 3 3 3 2 2 2 2 2 2 3 2 1 2 2 3 2 2 3 3 3 4 5 6 6 6 7 7 8 8 8 9 10 11 10
2 4 4 4 4 3 4 4 3 4 3 3 3 3 3 2 3 3 4 3 2 2 2 1 2 2 2 2 3 2 2 3 3 3 4 4 5 5 5 6 7 8 9
3 4 4 4 4 4 4 3 3 3 4 4 4 3 3 3 3 3 3 2 2 2 1 1 1 1 2 1 2 2 2 2 1 2 2 2 3 3 4 4 5 5 5
4 3 4 4 4 4 4 3 3 3 3 3 4 3 3 3 3 3 3 2 2 2 1 2 1 1 1 1 2 2 2 2 2 1 2 2 2 2 2 2 1 1 2
3 3 3 3 3 3 3 3 2 3 2 2 3 2 2 2 2 3 2 3 2 2 2 1 1 2 1 1 2 2 2 4 4 4 3 3 3 2 2 1 2 2 2
2 2 2 2 2 2 3 2 2 2 2 2 1 2 2 1 1 2 2 2 2 2 1 1 1 2 2 2 4 3 4 7 7 6 6 6 5 4 4 3 3 3 4
2 2 2 2 2 1 1 2 2 2 2 1 1 1 1 1 0 0 1 1 1 2 2 0 1 2 3 3 4 4 4 4 5 9 9 9 8 8 8 7 7 6 6
2 2 2 2 1 1 1 2 2 2 2 1 0 0 1 0 1 0 1 1 1 1 2 1 1 2 2 3 3 4 4 5 5 9 10 10 10 9 9 9 8 8 7
2 2 2 2 1 1 2 2 2 2 2 1 1 1 0 1 1 1 2 2 1 2 2 2 1 1 1 2 3 4 5 4 4 6 9 10 10 10 10 10 10 10 9
2 2 2 1 1 1 1 2 3 3 3 2 2 1 1 2 1 1 2 2 2 3 3 3 2 1 1 2 2 2 3 3 4 5 7 7 9 10 10 10 10 10 10
3 2 3 2 2 1 1 3 3 4 4 3 3 3 3 4 5 4 3 3 3 3 3 3 2 2 2 2 2 1 2 3 3 4 4 5 5 5 6 8 9 10 9
3 4 3 3 3 2 4 5 5 4 4 3 3 3 4 4 6 7 8 7 6 4 3 3 2 2 2 1 1 2 2 2 2 3 2 4 4 5 5 5 8 10 9
4 4 4 4 4 3 5 6 7 5 4 4 3 3 4 5 6 6 9 10 9 9 6 3 3 2 1 1 2 2 1 1 1 1 1 3 3 4 4 5 9 9 9
4 4 4 4 4 4 7 7 8 6 5 5 5 4 5 5 6 6 7 8 8 8 7 5 4 3 3 2 1 2 1 2 2 2 2 2 2 2 3 4 7 8 8
5 4 5 5 5 5 6 7 7 5 6 7 6 6 6 6 8 9 8 8 8 7 9 11 10 8 8 8 5 3 3 2 2 2 3 2 1 2 2 3 5 7 7
5 5 5 5 5 5 6 7 7 5 6 6 6 7 9 9 9 9 7 7 7 5 5 6 8 8 7 8 8 4 2 2 2 1 2 2 1 1 1 2 3 4 4
Wind_Direction
152 135 103 59 49 64 75 70 60 50 46 57 170 175 181 184 188 190 205 208 207 208 206 202 200 200 200 202 202 202 203 204 203 200 199 201 202 200 200 199 197 197 199
168 165 168 179 238 201 153 104 47 57 316 279 237 202 199 197 204 206 212 220 220 219 219 217 214 213 211 210 211 213 215 217 216 213 212 212 212 213 214 214 210 209 210
181 176 183 202 217 201 169 117 54 39 263 278 258 232 212 209 214 220 220 222 230 231 229 225 224 224 222 221 221 220 222 224 224 222 221 219 220 220 222 224 222 218 216
188 178 190 215 211 186 169 172 175 183 273 264 259 252 228 220 227 228 227 225 227 234 235 233 231 231 231 230 229 227 225 226 228 228 227 226 226 226 226 227 227 224 221
192 188 204 216 200 189 194 213 183 191 226 246 253 256 246 239 238 237 234 231 229 233 236 243 241 238 237 238 238 237 233 230 229 231 232 232 231 230 229 230 231 230 229
192 190 209 210 192 194 201 202 209 213 219 234 269 279 269 254 243 240 239 236 234 237 237 242 244 245 245 246 247 246 243 237 234 235 236 235 235 233 231 231 232 233 233
195 196 215 202 193 203 213 199 189 209 235 177 50 319 306 270 249 243 241 238 239 238 235 236 238 240 251 253 255 254 253 250 244 240 238 237 236 234 232 232 232 234 235
203 209 209 207 199 206 217 205 183 177 216 165 159 168 324 327 305 256 241 237 246 242 239 239 237 234 243 249 261 261 256 257 259 252 245 242 238 236 233 232 231 233 235
201 209 209 209 207 199 212 212 193 188 208 216 192 169 184 253 298 303 266 250 254 241 240 237 235 238 238 237 247 259 258 259 261 262 258 253 244 239 238 238 237 235 234
208 208 208 207 212 212 216 220 200 194 189 221 221 214 207 196 221 294 302 286 274 261 256 255 252 244 238 235 234 237 250 256 260 260 259 259 256 247 242 242 243 242 239
214 214 209 209 214 218 222 221 202 201 199 212 213 205 214 223 218 230 274 293 301 272 261 259 264 265 256 244 244 247 250 254 259 265 266 259 257 253 246 242 244 245 244
220 218 210 210 215 218 221 220 212 208 212 219 222 208 200 205 209 211 241 263 277 283 281 274 272 272 272 264 255 256 257 261 260 264 272 270 271 265 257 255 256 254 252
218 222 214 213 214 216 217 211 209 219 213 219 225 227 221 224 207 200 219 246 266 280 287 298 292 291 285 282 283 296 289 287 284 287 288 290 290 288 285 277 274 271 267
222 218 211 214 216 213 215 203 205 217 215 225 234 227 225 230 216 205 202 201 246 273 272 281 337 337 329 336 345 332 337 358 349 347 0 358 333 319 312 309 305 315 305
223 218 210 208 210 209 210 200 206 220 212 226 237 229 232 239 219 213 202 196 200 249 274 288 328 360 354 4 14 15 20 34 35 34 33 30 19 5 359 30 53 43 37
211 198 194 190 196 205 206 194 196 213 203 229 230 226 237 251 230 212 205 204 201 200 241 329 350 345 9 30 40 35 43 47 47 44 44 46 47 47 50 57 69 67 62
179 181 178 176 178 180 170 165 178 176 176 213 258 220 256 246 221 220 184 176 178 165 187 293 31 21 39 46 37 42 49 47 46 49 48 48 50 54 58 57 58 60 61
152 159 151 146 143 136 135 150 167 165 150 150 181 88 323 360 62 54 100 116 136 147 157 162 48 40 46 48 46 51 53 56 55 55 55 53 52 56 57 57 58 58 56
118 118 125 132 139 136 132 137 142 131 124 116 107 115 74 91 77 65 81 92 104 113 123 134 106 58 61 53 55 58 55 46 54 55 56 53 52 55 57 60 61 59 54
114 116 116 114 119 121 128 132 123 114 101 85 75 84 95 110 118 108 94 93 100 100 105 116 104 76 64 50 61 67 54 41 41 43 47 47 50 56 58 60 61 60 57
97 90 85 74 65 84 111 120 116 110 103 87 69 66 76 83 84 92 98 100 104 101 103 102 93 78 70 72 61 53 68 54 45 34 36 36 37 44 46 49 56 58 57
85 83 83 80 71 70 86 103 112 104 99 95 84 72 71 71 79 80 81 83 92 103 107 100 89 86 68 72 80 94 91 72 50 15 33 36 33 43 42 47 51 56 55
94 89 83 80 78 75 88 97 101 100 90 81 79 77 72 68 73 80 76 69 64 69 85 111 108 93 104 119 121 97 64 55 66 23 43 47 27 40 37 46 49 52 49
93 92 85 81 76 70 79 90 95 92 83 74 72 77 82 74 73 85 83 73 63 56 60 69 83 75 70 78 111 126 122 77 70 49 39 64 27 32 34 38 41 46 44
86 84 82 80 79 69 71 87 92 88 82 70 63 65 78 80 74 84 87 82 69 55 59 67 69 68 67 65 71 91 84 90 71 42 20 50 49 29 30 28 27 32 37
87 83 78 74 76 69 65 81 92 95 91 82 70 64 68 78 76 78 86 89 82 62 58 57 54 50 55 58 56 62 90 100 86 62 14 27 54 41 54 24 15 18 28